Home   Weather   Bergkamen   Past weeks

Flag for Germany Past Weather in Bergkamen, North Rhine-Westphalia, Germany — Yesterday and Last 2 Weeks

Now
59 °F

Light rain. Passing clouds.


Feels Like: 58 °F
Forecast: 52 / 63 °F
Wind: 8 mph from Southwest

Location: Muenster / Osnabrueck

Current Time: Sep 30, 2016 at 1:57:01 AM

Latest Report: Sep 30, 2016 at 1:20 AM


Visibility: N/A

Pressure: 29.92 "Hg

Humidity: 88%

Dew Point: 55 °F

Location of BergkamenLocation

Past Weather in Bergkamen — Graph

°F

Bergkamen Temperature Yesterday

Maximum temperature yesterday: 70 °F (at 12:20 PM)
Minimum temperature yesterday: 59 °F (at 10:20 PM)
Average temperature yesterday: 66 °F

High & Low Weather Summary for the Past Weeks

 TemperatureHumidityPressure
High84 °F (Sep 15, 1:50 PM)100% (Sep 16, 7:50 AM)30.30 "Hg (Sep 16, 7:50 AM)
Low43 °F (Sep 21, 5:20 AM)30% (Sep 25, 3:20 PM)29.83 "Hg (Sep 15, 3:20 PM)
Average61 °F70%30.09 "Hg
* Reported Sep 15 12:20 AM — Sep 30 12:20 AM, Bergkamen, Weather by CustomWeather, © 2016

Note: Actual official high and low records may vary slightly from our data, if they occured in-between our weather recording intervals... More about our weather records

Advertising

Bergkamen Weather History for the Previous 24 Hours

Scroll right to see more
 ConditionsComfort  
Time TempWeatherWind HumidityBarometerVisibility
12:20 AM
Fri, Sep 30
59 °FLight rain. Passing clouds.9 mph88%29.92 "HgN/A
11:50 PM
Thu, Sep 29
59 °FLight rain. Passing clouds.12 mph88%29.89 "HgN/A
11:20 PM59 °FPassing clouds.12 mph88%29.89 "HgN/A
10:50 PM59 °FPassing clouds.12 mph88%29.92 "HgN/A
10:20 PM59 °FPartly cloudy.15 mph88%29.92 "HgN/A
9:50 PM61 °FLight rain. Partly cloudy.16 mph88%29.89 "Hg5 mi
9:20 PM61 °FRain. Partly cloudy.14 mph94%29.89 "Hg2 mi
8:50 PM64 °FLight rain. Passing clouds.24 mph78%29.89 "HgN/A
8:20 PM66 °FLight rain. Passing clouds.18 mph68%29.86 "HgN/A
7:50 PM66 °FPartly cloudy.16 mph64%29.89 "HgN/A
7:20 PM66 °FPartly cloudy.18 mph64%29.89 "HgN/A
6:50 PM68 °FPartly sunny.18 mph60%29.89 "HgN/A
6:20 PM68 °FPartly sunny.16 mph60%29.89 "HgN/A
5:50 PM68 °FPartly sunny.21 mph60%29.89 "HgN/A
5:20 PM68 °FPartly sunny.13 mph60%29.89 "HgN/A
4:50 PM68 °FPartly sunny.17 mph60%29.89 "HgN/A
4:20 PM68 °FPartly sunny.16 mph60%29.89 "HgN/A
3:50 PM70 °FPartly sunny.20 mph57%29.89 "HgN/A
3:20 PM70 °FPartly sunny.17 mph57%29.92 "HgN/A
2:50 PM68 °FPartly sunny.17 mph60%29.92 "HgN/A
2:20 PM68 °FPartly sunny.17 mph60%29.92 "HgN/A
1:50 PM70 °FPartly sunny.21 mph57%29.92 "HgN/A
1:20 PM70 °FBroken clouds.20 mph57%29.95 "HgN/A
12:50 PM70 °FPartly sunny.23 mph53%29.95 "HgN/A
12:20 PM70 °FBroken clouds.21 mph60%29.95 "HgN/A
11:50 AM68 °FPartly sunny.18 mph60%29.95 "HgN/A
11:20 AM66 °FPartly sunny.17 mph68%29.98 "HgN/A
10:50 AM68 °FPartly sunny.16 mph64%29.98 "HgN/A
10:20 AM66 °FPassing clouds.15 mph68%30.01 "HgN/A
9:50 AM64 °FPassing clouds.13 mph73%30.01 "HgN/A
9:20 AM64 °FSunny.14 mph68%30.01 "Hg10 mi
8:50 AM64 °FPassing clouds.14 mph68%30.01 "HgN/A
8:20 AM63 °FPassing clouds.12 mph73%30.04 "HgN/A
7:50 AM63 °FPassing clouds.13 mph73%30.04 "HgN/A
7:20 AM64 °FClear.14 mph68%30.04 "Hg10 mi
6:50 AM64 °FMostly cloudy.13 mph68%30.04 "HgN/A
6:20 AM64 °FMostly cloudy.12 mph64%30.07 "HgN/A
5:50 AM64 °FMostly cloudy.13 mph64%30.07 "HgN/A
5:20 AM64 °FMostly cloudy.13 mph64%30.07 "HgN/A
4:50 AM64 °FMostly cloudy.13 mph64%30.09 "HgN/A
4:20 AM64 °FMostly cloudy.14 mph64%30.09 "HgN/A
3:50 AM66 °FPassing clouds.13 mph60%30.09 "HgN/A
3:20 AM66 °FPassing clouds.14 mph60%30.09 "HgN/A
2:50 AM66 °FMostly cloudy.14 mph60%30.12 "HgN/A
2:20 AM66 °FPassing clouds.14 mph60%30.12 "HgN/A
1:50 AM66 °FPartly cloudy.10 mph60%30.12 "HgN/A
1:20 AM66 °FPartly cloudy.10 mph60%30.15 "HgN/A
Weather by CustomWeather, © 2016

See weather overviewHow to use our weather pages